Simultaneous Nadir Overpasses (SNOs) Predictions

Prediction of SNOs between GOES-16 and LANDSAT-8 Satellite Orbit:

Table of predicted SNOs for the next 14.0 days since TLE Epoch: 2/13/2025
Index Date Time (GOES-16) GOES-16 Lat,Lon LANDSAT-8 Lat,Lon Distance(km) Time Diff (sec)
1 02/14/2025 03:03:31 -0.02, -75.17 0.41, -73.21 223.42 80
2 02/14/2025 15:24:45 0.02, -75.21 0.72, -78.36 359.07 80
3 02/16/2025 15:12:34 0.02, -75.22 0.06, -75.41 21.72 80
4 02/18/2025 15:03:02 0.02, -75.23 -0.57, -72.45 316.12 80
5 02/19/2025 03:24:26 -0.02, -75.21 -0.54, -77.64 277.10 80
6 02/21/2025 03:09:34 -0.02, -75.22 0.11, -74.69 61.10 80
7 02/23/2025 02:57:21 -0.01, -75.24 0.72, -71.72 399.58 80
8 02/23/2025 15:18:37 0.01, -75.28 0.33, -76.89 183.10 80
9 02/25/2025 15:09:04 0.00, -75.30 -0.31, -73.93 156.13 80
10 02/26/2025 03:30:27 -0.00, -75.28 -0.84, -79.11 436.16 80
11 02/27/2025 14:56:50 0.00, -75.33 -0.90, -70.96 496.28 80
